Regional Weather Roundup
Issued by NWS Cleveland, OH

Home | Current Version | Previous Version | Text Only | Print | Product List | Glossary Off
Versions: 1 2 3 4 5 6 7 8 9 10 11 12 13 14 15 16 17 18 19 20 21 22 23 24 25 26 27 28 29 30 31 32 33 34 35 36 37 38 39 40 41 42 43 44 45 46 47 48 49 50

000
ASUS41 KCLE 030900
RWRCLE
OHIO REGIONAL WEATHER ROUNDUP
NATIONAL WEATHER SERVICE WILMINGTON, OH
500 AM EDT FRI JUL 03 2015

NOTE: "FAIR" INDICATES FEW OR NO CLOUDS BELOW 12,000 FEET WITH NO
SIGNIFICANT WEATHER AND/OR OBSTRUCTIONS TO VISIBILITY.

OHZ001>008-015>018-024>027-034-035-043-044-031000-
   NORTHWEST OHIO

CITY           SKY/WX    TMP DP  RH WIND       PRES   REMARKS
DEFIANCE       PTCLDY    58  55  90 NE3       29.97F
FINDLAY        PTCLDY    60  55  83 MISG      29.95F
TOLEDO EXPRESS PTCLDY    54  53  97 CALM      29.97F
TOLEDO EXEC    PTCLDY    58  53  84 NE5       29.98F
LIMA           PTCLDY    57  54  89 E5        29.96S
$$

OHZ009>014-019>023-028>033-038-089-031000-
   NORTHEAST OHIO

CITY           SKY/WX    TMP DP  RH WIND       PRES   REMARKS
CLE-HOPKINS    PTCLDY    56  50  80 CALM      30.00S
CLE-LAKEFRONT  CLEAR     61  53  75 CALM      29.97F
CUY CO. ARPT   NOT AVBL
LORAIN-ELYRIA  FOG       54  54 100 CALM      29.99S VSB 1/4
ASHTABULA      CLEAR     49  48  97 CALM      30.00F
AKRON-CANTON   PTCLDY    54  50  86 NE5       29.98F
WOOSTER        NOT AVBL
MANSFIELD      CLEAR     55  53  93 N3        29.97F
YOUNGSTOWN     PTCLDY    51  49  92 E5        29.98S
$$

OHZ042-051>053-060>062-070>072-077>081-031000-
  SOUTHWEST OHIO

CITY           SKY/WX    TMP DP  RH WIND       PRES   REMARKS
CINC-COVINGTON CLOUDY    68  64  87 NE8       29.88F
CINC-LUNKEN    CLOUDY    67  64  90 NE6       29.88F
HAMILTON       CLOUDY    66  61  84 NE5       29.90S
DAYTON         NOT AVBL
WRIGHT-PAT AFB MOCLDY    62  56  80 NE8       29.91F
DAYTON GENERAL CLOUDY    64  58  80 E8        29.90F
WILMINGTON     CLOUDY    63  58  83 NE8       29.90F
$$

OHZ036-037-039>041-045>050-054>059-063>069-073>076-082>088-031000-
  CENTRAL AND SOUTHEAST OHIO

CITY           SKY/WX    TMP DP  RH WIND       PRES   REMARKS
COLUMBUS       MOCLDY    62  54  74 E6        29.93S
OSU AIRPORT    PTCLDY    60  54  80 E6        29.94S
BOLTON FIELD   NOT AVBL
RICKENBACK AFB NOT AVBL
NEWARK         PTCLDY    60  55  83 N3        29.94F
MARION         CLEAR     56  53  90 NE5       29.96F
LANCASTER      PTCLDY    61  56  83 NE7       29.93F
ZANESVILLE     PTCLDY    60  55  83 NE5       29.94F
NEW PHILLY     CLEAR     53  53 100 CALM      29.97F
$$


USA.gov is the U.S. government's official web portal to all federal, state and local government web resources and services.